Location: Cussac
(45.4833°N, 2.2333°E)
Time: 12:02:03
(UTC+00:00)

Daily predictions for brighter satellites

Satellite Brightness Start Highest point End
(mag) Time Altitude Azimuth Time Altitude Azimuth Time Altitude Azimuth
Ariane Rocket 3.3 20:08:02 10° SSE 20:12:59 56° ENE 20:17:59 10° N
Cosmos 1954 Rocket 4.2 20:12:43 10° NNW 20:17:59 75° WSW 20:23:10 10° SSE
Cosmos 1544 Rocket 3.6 20:15:39 10° N 20:19:58 65° E 20:24:17 10° SSE
Lacrosse 5 rocket 3.1 20:17:54 10° WNW 20:20:55 22° SW 20:24:03 10° S
Cosmos 1656 3.8 20:16:49 10° NNW 20:22:17 66° ENE 20:27:47 10° SE
GEOS 3 Rocket 3.7 20:18:09 10° SE 20:23:15 78° SW 20:28:24 10° NW
ATLAS 2AS CENTAUR R/B 3.0 20:21:40 10° NW 20:28:40 66° WSW 20:35:12 10° SSE
MetOp-B 4.2 20:24:57 10° SSE 20:30:16 68° ENE 20:35:36 10° N
Cosmos 1850 Rocket 4.3 20:26:08 10° NNW 20:31:15 53° ENE 20:36:17 10° SE
PSLV R/B 4.1 20:28:17 10° NNE 20:32:27 81° WNW 20:36:37 10° SSW
Cosmos 1980 Rocket 3.7 20:29:02 10° N 20:33:39 25° NE 20:38:14 10° ESE
Cosmos 1697 Rocket 3.4 20:28:57 10° NNW 20:34:17 42° NE 20:39:32 10° SE
USA 32 4.0 20:29:19 10° S 20:34:31 80° E 20:39:46 10° N
SL-8 R/B 3.7 20:31:23 10° WNW 20:36:13 87° NNE 20:41:02 10° ESE
TSX-5 4.4 20:33:09 10° SSW 20:37:37 82° ESE 20:43:31 10° NNE
SPOT 1/Viking Rocket 3.8 20:35:31 10° S 20:40:38 72° WSW 20:45:50 10° NNW
COSMOS 2406 4.1 20:37:40 10° SSE 20:42:31 29° ESE 20:47:24 10° NE
Spot 2 Rocket 4.1 20:38:47 10° SE 20:43:31 45° ENE 20:48:22 10° N
Cosmos 1025 Rocket 4.3 20:40:16 10° SSW 20:44:20 42° WNW 20:48:27 10° N
X-37B 0.2 20:41:34 10° W 20:44:22 74° S 20:47:01 11° ESE
SPOT 5 3.0 20:49:45 13° SE 20:53:29 49° ENE 20:57:39 10° N
Cosmos 1703 3.2 20:51:42 10° S 20:55:29 62° E 20:59:18 10° NNE
Cosmos 2084 Rocket 4.3 20:53:03 10° NNW 20:56:42 37° NE 21:00:03 12° ESE
RESURS DK-1 2.3 20:53:49 10° NNW 20:57:58 89° WSW 21:01:19 15° SSE
Cosmos 1452 Rocket 3.6 20:53:00 10° SSW 20:58:15 87° WNW 21:03:33 10° NNE
Cosmos 1833 Rocket 2.7 20:52:55 10° SSW 20:58:26 65° ESE 21:04:01 10° NNE
Terra 2.5 20:56:28 14° SE 21:00:11 42° ENE 21:04:40 10° N
CZ-4B R/B 2.7 20:59:52 10° N 21:02:33 35° WNW 21:05:13 10° SW
Helios 1A Rocket 3.1 21:01:06 16° SSE 21:04:15 58° ENE 21:08:17 10° N
Cosmos 1110 Rocket 4.0 20:59:02 10° S 21:04:15 69° ESE 21:09:32 10° NNE
ERS-1 Rocket 3.1 21:02:33 15° SSE 21:06:41 62° ENE 21:11:40 10° N
Resurs 01 Rocket 3.3 21:03:22 10° SSW 21:07:17 31° W 21:11:15 10° NNW
Cosmos 2228 2.9 21:07:48 10° N 21:12:03 77° E 21:15:15 17° SSE
Cosmos 1825 4.5 21:15:25 10° E 21:15:42 10° E 21:15:59 10° E
Cosmos 2184 Rocket 4.1 21:09:51 10° N 21:16:04 83° W 21:21:54 12° S
Cosmos 1408 4.0 21:16:14 18° ESE 21:17:09 20° E 21:19:45 10° NE
Lacrosse 5 3.7 21:14:24 10° WNW 21:18:10 21° WSW 21:21:56 10° S
Cosmos 968 Rocket 4.0 21:18:08 10° N 21:23:10 47° ENE 21:26:36 19° SE
Cosmos 1900 4.4 21:18:05 10° NW 21:23:17 88° WSW 21:26:45 21° SSE
Cosmos 1328 3.9 21:22:05 19° SSE 21:24:45 57° E 21:28:41 10° NNE
USA 276 3.7 21:24:27 10° WNW 21:27:14 32° N 21:30:02 10° ENE
Cosmos 2360 4.3 21:26:06 10° NNW 21:31:51 77° WSW 21:35:50 21° SSE
Cosmos 2082 Rocket 2.4 21:27:22 13° S 21:32:16 51° ESE 21:37:47 10° NE
Cosmos 1867 4.1 21:27:22 10° NNW 21:32:44 53° NE 21:36:30 19° ESE
USA 245 4.5 21:30:03 12° SSW 21:33:37 36° WSW 21:36:50 10° NNW
USA 267 3.7 21:32:04 10° ENE 21:38:01 36° SE 21:43:55 10° SSW
ARIANE 5 R/B 2.6 21:35:43 24° SSE 21:38:19 71° ENE 21:42:44 10° N
Cosmos 1606 Rocket 3.5 21:36:26 10° N 21:40:46 82° W 21:43:24 23° S
GP-B 3.9 21:37:41 10° NNE 21:41:48 36° E 21:43:34 26° SE
Meteor 1-21 Rocket 4.4 21:37:23 10° SSW 21:42:57 72° WNW 21:48:40 10° N
Cosmos 2341 Rocket 4.2 21:36:56 10° N 21:43:09 57° ENE 21:47:01 23° SSE
SAR-Lupe-4 4.4 21:42:56 10° NNE 21:46:10 31° E 21:46:46 29° ESE
Cosmos 192 4.2 21:43:00 12° SSW 21:47:28 84° ESE 21:52:24 10° NNE
Okean 1-7 Rocket 4.3 21:58:40 30° SE 22:00:02 37° E 22:04:12 10° NNE
SAR-Lupe-1 4.1 21:59:16 10° NNE 22:02:48 57° ESE 22:03:39 43° SSE
Cosmos 1892 2.6 22:02:06 40° SSE 22:03:17 66° E 22:07:02 10° NNE
Cosmos 1726 Rocket 3.8 21:59:12 10° NNW 22:03:28 61° W 22:05:40 27° SSW
Cosmos 2181 Rocket 4.1 22:07:21 27° SSE 22:10:43 62° E 22:16:52 10° NNE
Cosmos 1633 4.1 22:12:09 21° E 22:12:09 21° E 22:14:41 10° NE
USA 234 4.1 22:06:18 10° E 22:12:31 48° NNE 22:18:45 10° NW
Cosmos 1992 Rocket 4.0 22:15:18 31° S 22:17:39 60° ESE 22:22:49 10° NNE
SL-16 R/B 3.1 22:12:46 10° NNW 22:18:06 39° NE 22:21:23 21° ESE
Cosmos 1697 Rocket 3.9 22:13:10 10° NW 22:18:06 32° WSW 22:21:16 19° SSW
Cosmos 1980 Rocket 2.4 22:12:30 10° NNW 22:18:08 64° WSW 22:20:52 31° S
Cosmos 1486 Rocket 4.2 22:13:35 10° NNW 22:18:47 63° ENE 22:21:05 32° SE
Cosmos 1932 4.4 22:13:39 12° SSW 22:19:25 78° ESE 22:25:45 10° NE
X-37B 2.5 22:17:13 10° W 22:18:13 17° WSW 22:18:13 17° WSW
Cosmos 2369 4.1 22:16:09 10° NW 22:21:43 54° WSW 22:24:30 28° S
COSMOS 2406 4.2 22:21:01 10° SW 22:26:35 48° WNW 22:32:09 10° NNE
Cosmos-2242 4.1 22:26:18 10° N 22:30:08 32° ENE 22:31:12 28° ESE
ATLAS 5 CENTAUR R/B 1.0 22:29:22 47° SSW 22:30:21 77° SE 22:34:27 10° NE
Cosmos 1602 Rocket 3.9 22:32:11 41° SE 22:33:00 46° E 22:37:09 10° NNE
In-Cosmos 22 Rocket 4.1 22:30:23 29° SSW 22:33:18 87° W 22:38:46 10° N
Cosmos 1869 3.1 22:30:27 10° N 22:34:22 82° E 22:35:09 56° SSE
Terra 3.6 22:35:21 15° SW 22:38:06 24° W 22:41:55 10° NW
ERS-2 4.5 22:36:41 10° ENE 22:37:40 12° E 22:37:40 12° E
Meteor 1-27 4.2 22:34:40 10° NNW 22:40:14 81° W 22:42:35 36° S
ALOS 2 3.5 22:39:48 30° ESE 22:41:08 38° ENE 22:45:12 10° N
FALCON 9 DEB 3.0 22:38:50 10° NW 22:42:06 72° NNE 22:42:17 69° ENE
ASTEX 1 4.0 22:38:18 10° N 22:43:12 54° W 22:45:50 26° SW
Cosmos 1354 Rocket 4.4 22:41:47 10° NNW 22:47:00 54° ENE 22:49:06 33° SE
BREEZE-M DEB (TANK) 4.0 22:44:55 10° WNW 22:48:02 63° NNE 22:59:26 10° E
ADEOS Rocket 3.8 22:45:43 27° SE 22:49:49 60° ENE 22:57:24 10° N
SL-8 Rocket 4.4 22:43:47 10° NNW 22:49:51 56° W 22:53:01 28° SSW
Cosmos 1825 2.5 22:49:40 46° SW 22:50:28 59° W 22:54:11 10° N
Cosmos 2058 Rocket 4.3 22:46:55 10° NNW 22:50:54 33° W 22:52:35 25° SW
Cosmos 1408 4.5 22:50:12 18° WSW 22:51:42 23° WNW 22:54:32 10° NNW
Cosmos 2322 Rocket 2.7 22:48:07 10° NNW 22:53:40 52° ENE 22:56:24 28° ESE
Cosmos 1626 Rocket 3.7 22:54:43 41° SW 22:56:04 65° W 23:00:24 10° N
Cosmos 1503 Rocket 4.0 22:51:30 10° NNW 22:56:49 79° ENE 22:58:35 43° SSE
USA 276 2.7 23:00:17 10° WNW 23:02:50 54° NNW 23:02:50 54° NNW
Cosmos 2278 4.2 22:58:56 10° NW 23:04:24 47° WSW 23:06:17 34° SSW
Cosmos 2333 Rocket 3.7 23:03:40 10° N 23:08:43 30° NE 23:12:52 14° ESE
Cosmos 1825 Rocket 3.9 23:08:17 45° ESE 23:08:46 47° E 23:12:57 10° NNE
CENTAUR R/B 4.5 23:09:59 10° E 23:10:06 10° E 23:10:14 10° E
Gbstr 26 Del rocket 3.7 23:11:08 39° ESE 23:11:08 39° ESE 23:15:04 10° ENE
SJ 16-02 1.4 23:06:59 10° NNW 23:11:24 68° ENE 23:12:19 52° SE
Cosmos 1340 Rocket 3.8 23:13:04 32° E 23:13:04 32° E 23:16:36 10° NNE
Meteor 2-20 4.4 23:13:53 38° S 23:16:25 86° W 23:22:32 10° N
Cosmos 2082 Rocket 3.9 23:11:40 10° WSW 23:16:37 30° NW 23:21:35 10° N
H-2A R/B 3.4 23:16:04 10° NNE 23:20:18 88° ESE 23:20:55 64° S
USA 267 3.4 23:14:49 10° NE 23:21:21 76° NNW 23:27:52 10° WSW
Cosmos 2058 2.8 23:26:08 64° SE 23:26:32 69° E 23:30:42 10° NNE
Cosmos 2221 3.7 23:23:19 10° N 23:27:17 33° ENE 23:28:17 29° ESE
Cosmos 1606 2.5 23:24:14 10° N 23:28:06 81° W 23:28:16 78° SW
Spot 4 4.4 23:27:39 39° SW 23:28:44 47° W 23:33:22 10° NNW
Cosmos 2360 Rocket 2.5 23:23:57 10° NNW 23:29:37 63° ENE 23:32:00 34° SE
Cosmos 1934 Rocket 4.1 23:24:39 10° N 23:30:43 65° E 23:33:06 38° SSE
Cosmos 1833 4.4 23:39:57 45° SSE 23:41:15 56° ESE 23:46:42 10° NE
Cosmos 44 3.3 23:41:21 50° SE 23:41:28 50° ESE 23:45:50 10° NE
Meteor 2-2 Rocket 4.3 23:36:25 10° N 23:42:28 88° E 23:44:36 43° S
Meteor 2-20 Rocket 4.5 23:42:26 38° SSW 23:44:51 73° W 23:50:59 10° N
Cosmos 2237 4.2 23:39:35 10° NNW 23:45:16 68° WSW 23:46:53 46° S
Cosmos 1633 4.2 23:45:56 23° W 23:46:23 23° WNW 23:49:14 10° NNW
Cosmos 1339 Rocket 4.4 23:50:04 42° S 23:52:16 76° E 23:58:25 10° NNE
